Regional Weather Roundup
Issued by NWS

Home | Current Version | Previous Version | Text Only | Print | Product List | Glossary Off
Versions: 1 2 3 4 5 6 7 8 9 10 11 12 13 14 15 16 17 18 19 20 21 22 23 24 25 26 27 28 29 30 31 32 33 34 35 36 37 38 39 40 41 42 43 44 45 46 47 48 49 50

239
ASUS43 KIND 252009
RWRIN

WEATHER ROUNDUP FOR INDIANA
NATIONAL WEATHER SERVICE INDIANAPOLIS IN
400 PM EDT MON JUL 25 2016

NOTE: "FAIR" INDICATES FEW OR NO CLOUDS BELOW 12,000 FEET WITH NO
SIGNIFICANT WEATHER AND/OR OBSTRUCTIONS TO VISIBILITY.

* - STATION DOES NOT REPORT WEATHER SUCH AS PRECIPITATION OR FOG.

+ - STATION NOT QUALITY CONTROLLED BY THE NATIONAL WEATHER SERVICE.
    USE DATA WITH CAUTION...ESPECIALLY DEWPOINT AND RELATIVE
    HUMIDITY OBSERVATIONS.

INZ001>003-010>013-019-020-252100-
NORTHWEST INDIANA

CITY           SKY/WX    TMP DP  RH WIND       PRES   REMARKS
KNOX *+        MOSUNNY   82  55  39 NW7       30.00F
LA PORTE +     SUNNY     84  64  50 NW6       30.01F
MICHIGAN CITY+ SUNNY     81  64  57 N5        30.01F
MONTICELLO +   CLOUDY    84  68  59 NW5       29.99F
RENSSELAER +   MOSUNNY   82  70  65 CALM      30.00F
VALPARAISO     SUNNY     86  62  44 N8        30.01F

$$

LMZ046-743>745-252100-
SOUTHERN LAKE MICHIGAN

STATION/POSITION TIME  TEMP    WIND        PRES    WAVE
                       AIR SEA DIR/SP/G            HT
                 (UTC) (F)     (DEG/KT/KT) (MB)    (FT)
BURNS HARBOR     1900   78      40/  4/  4 1016.9F
MICHIGAN CITY    1900   77     270/  4/  5   N/A
5NW MICH CITY    2000   75 76   40/  4/  4   N/A     1

$$

INZ004-005-014>016-021>024-252100-
NORTH CENTRAL INDIANA

CITY           SKY/WX    TMP DP  RH WIND       PRES   REMARKS
ELKHART        SUNNY     84  70  61 NW9       30.00F
GOSHEN         SUNNY     87  58  37 NW13      29.98F
LOGANSPORT +   CLOUDY    82  70  65 W3        30.01S
PERU/GRISSOM   CLOUDY    84  71  65 NW6       29.99F
ROCHESTER +    CLOUDY    86  70  58 W8        30.00F
SOUTH BEND     SUNNY     83  65  54 NW10G16   30.00F
WARSAW +       MOSUNNY   84  66  54 NW7       29.99F

$$

INZ006>009-017-018-025>027-252100-
NORTHEAST INDIANA

CITY           SKY/WX    TMP DP  RH WIND       PRES   REMARKS
ANGOLA *+        N/A     86  82  89 W10       29.98F HX 105
AUBURN +       SUNNY     88  61  40 W9G16     29.98F
FORT WAYNE     PTSUNNY   87  69  54 NW8       29.98F
HUNTINGTON +   PTSUNNY  N/A N/A N/A NW6       29.98F

$$

INZ028-029-035-036-043>045-051>053-252100-
WEST CENTRAL INDIANA

CITY           SKY/WX    TMP DP  RH WIND       PRES   REMARKS
CRAWFORDSVL +  PTSUNNY   83  75  74 NW6       30.00F
GREENCASTLE +  MOSUNNY   86  75  70 W3        30.01F HX  95
LAFAYETTE      PTSUNNY   84  73  69 VRB5      29.99F
TERRE HAUTE    MOSUNNY   88  73  61 N7        29.99F HX  95

$$

INZ030>032-037>040-046>048-054>057-064-065-252100-
CENTRAL INDIANA

CITY           SKY/WX    TMP DP  RH WIND       PRES   REMARKS
COLUMBUS       SUNNY     86  75  70 NW9       29.99F HX  95
INDIANAPOLIS   PTSUNNY   88  72  58 W8G17     30.00F
-EAGLE CREEK   MOSUNNY   88  72  58 W10       29.99F
KOKOMO *+      MOSUNNY   84  70  61 NW12      29.99F
MARION +       MOSUNNY   83  72  69 N7        30.00S HAZE
MT COMFORT *+  MOSUNNY   86  72  62 W9        30.01S
SHELBYVILLE    MOSUNNY   90  70  51 N7        29.99F HX  95
ZIONSVILLE +   PTSUNNY   83  73  72 NW8       30.01F

$$

INZ033-034-041-042-049-050-058-059-252100-
EAST CENTRAL INDIANA

CITY           SKY/WX    TMP DP  RH WIND       PRES   REMARKS
MUNCIE         MOSUNNY   88  73  61 W9        29.99F HX  95

$$

INZ060-061-067>069-081>083-085>088-252100-
SOUTHWEST INDIANA

CITY           SKY/WX    TMP DP  RH WIND       PRES   REMARKS
EVANSVILLE     TSTM      77  74  90 E5        29.99R FOG
HUNTINGBURG *+ CLOUDY    75  72  88 N5        30.02R
WASHINGTON +   CLOUDY    85  77  76 MISG      29.98S HX  96

$$

INZ062-063-066-070>080-084-089>092-252100-
SOUTH CENTRAL AND SOUTHEAST INDIANA

CITY           SKY/WX    TMP DP  RH WIND       PRES   REMARKS
BLOOMINGTON    CLOUDY    87  72  60 W6        30.01S
MADISON *+     PTSUNNY   79  70  73 S7        30.02F

$$





USA.gov is the U.S. government's official web portal to all federal, state and local government web resources and services.